Location: Newark
(34.1333°N, 7.9667°W)
Time: 00:21:20
(UTC+00:00)

JUGNU - Pass Details

Date: 17 June 2023
Orbit: 835 x 862 km, 20.0° (Epoch: 28 September)

Event Time Altitude Azimuth Distance (km) Brightness Sun altitude
Rises 21:32:47 0° 246° (WSW) 3,418 ? -18.3°
Reaches altitude 10° 21:36:06 10° 229° (SW) 2,478 ? -18.8°
Enters shadow 21:39:51 19° 189° (S) 1,926 ? -19.3°
